TimeEST,TemperatureF,Dew PointF,Humidity,Sea Level PressureIn,VisibilityMPH,Wind Direction,Wind SpeedMPH,Gust SpeedMPH,PrecipitationIn,Events,Conditions,WindDirDegrees,DateUTC
12:25 AM,-13.7,-18.2,80,29.98,-9999.0,Calm,Calm,-,N/A,,Unknown,0,2013-01-22 05:25:00
1:25 AM,-17.1,-21.5,81,29.97,-9999.0,Calm,Calm,-,N/A,,Unknown,0,2013-01-22 06:25:00
2:25 AM,-19.8,-24.7,78,29.94,-9999.0,Calm,Calm,-,N/A,,Unknown,0,2013-01-22 07:25:00
3:25 AM,-24.9,-30.6,74,29.94,-9999.0,Calm,Calm,-,N/A,,Unknown,0,2013-01-22 08:25:00
4:25 AM,-25.4,-31.4,74,29.96,-9999.0,Calm,Calm,-,N/A,,Unknown,0,2013-01-22 09:25:00
5:25 AM,-26.0,-31.5,75,29.98,-9999.0,Calm,Calm,-,N/A,,Unknown,0,2013-01-22 10:25:00
6:25 AM,-27.9,-33.9,73,29.99,-9999.0,Calm,Calm,-,0.00,,Unknown,0,2013-01-22 11:25:00
7:25 AM,-29.7,-36.0,72,30.01,-9999.0,Calm,Calm,-,N/A,,Unknown,0,2013-01-22 12:25:00
8:26 AM,-25.8,-32.1,72,30.01,-9999.0,Calm,Calm,-,0.00,,Unknown,0,2013-01-22 13:26:00
9:25 AM,-17.7,-23.4,75,30.01,-9999.0,Calm,Calm,-,0.04,,Unknown,0,2013-01-22 14:25:00
10:25 AM,-6.3,-14.4,68,29.99,-9999.0,Variable,3.5,-,0.01,,Unknown,0,2013-01-22 15:25:00
11:26 AM,-1.7,-12.5,60,29.94,-9999.0,Variable,5.8,-,N/A,,Unknown,0,2013-01-22 16:26:00
12:27 PM,0.5,-11.9,56,29.92,-9999.0,Variable,4.6,-,N/A,,Unknown,0,2013-01-22 17:27:00
1:25 PM,1.8,-13.0,50,29.91,-9999.0,Variable,5.8,-,N/A,,Unknown,0,2013-01-22 18:25:00
2:25 PM,4.1,-11.2,49,29.91,-9999.0,Variable,2.3,-,N/A,,Unknown,0,2013-01-22 19:25:00
3:25 PM,2.5,-10.7,54,29.92,-9999.0,Variable,3.5,-,N/A,,Unknown,0,2013-01-22 20:25:00
4:25 PM,0.3,-7.4,70,29.92,-9999.0,Calm,Calm,-,0.01,,Unknown,0,2013-01-22 21:25:00
5:25 PM,-4.9,-9.0,82,29.93,-9999.0,Calm,Calm,-,N/A,,Unknown,0,2013-01-22 22:25:00
6:25 PM,-8.7,-12.8,82,29.94,-9999.0,Calm,Calm,-,N/A,,Unknown,0,2013-01-22 23:25:00
7:25 PM,-11.4,-16.1,80,29.95,-9999.0,Calm,Calm,-,N/A,,Unknown,0,2013-01-23 00:25:00
8:25 PM,-7.4,-11.9,81,29.94,-9999.0,Variable,3.5,-,0.00,,Unknown,0,2013-01-23 01:25:00
9:25 PM,-7.2,-12.6,77,29.93,-9999.0,Variable,4.6,-,0.01,,Unknown,0,2013-01-23 02:25:00
10:25 PM,-6.7,-12.8,75,29.93,-9999.0,Variable,5.8,12.7,0.01,,Unknown,0,2013-01-23 03:25:00
11:25 PM,-8.1,-14.3,75,29.93,-9999.0,Variable,3.5,-,0.01,,Unknown,0,2013-01-23 04:25:00